Location: Unspecified
(48.5670°N, 0.0000°E)
Time: 08:37:40
(UTC+00:00)

Vanguard 2 Rocket - Pass Details

Date: 28 August 2019
Orbit: 554 x 3326 km, 32.9° (Epoch: 24 September)

Event Time Altitude Azimuth Distance (km) Brightness Sun altitude
Rises 00:15:46 0° 199° (SSW) 4,042 - -31.5°
Reaches altitude 10° 00:19:12 10° 181° (S) 3,478 - -31.4°
Maximum altitude 00:25:11 19° 140° (SE) 3,474 - -31.3°
Exits shadow 00:27:28 18° 126° (SE) 3,779 9.7 -31.3°
Drops below altitude 10° 00:33:21 10° 102° (ESE) 4,978 10.6 -31.1°
Sets 00:39:47 0° 89° (E) 6,519 11.4 -30.9°
